LiveATC.Net - Listen to live air traffic control over the Internet!


ICAO: YMHB  IATA: HBA   Airport: Hobart International Airport
City: Cambridge   State/Province: Tasmania
Country: Australia   Continent: Oceania
YMHB METAR Weather: YMHB 261230Z 32008KT 9999 FEW020 06/04 Q1023
YMHB Flight Activity (FlightAware)

YMHB Gnd/Twr/Centre
Feed Status: UP   Listeners: 0
Listen in your browser - HTML5 player (in browser, HTML5)
Click here to listen with your own player (launches your MP3 player)
Archive Access: YMHB Gnd/Twr/Centre
FacilityFrequency
Hobart Ground121.700
Hobart Tower118.100
Melbourne Centre125.550

NOTICE

Unauthorized use prohibited. See LiveATC.net Terms of Service


Airport/ARTCC Code
Frequency Search
(e.g., 124.400, 128.75)
Site-wide search
 


Browse Feeds
Top 50 Feeds
Coverage Map
Bad Weather Areas

LiveATC FAQ
Offer LiveATC feed
Contact LiveATC.net
Press Inquiries

LiveATC on iPhone
LiveATC on Android

Windows Phone
Windows 8/10

LiveATC Mobile
(Mobile browser)

ATC Audio Archives
Interesting Recordings

LiveATC Forums


Home Page
About LiveATC.net
Make a Donation
Terms of Use
Privacy Policy

Canadian Air Freqs

AIRMETs/SIGMETs

FAA Airport Status
Nat'l Airspace Status
Arrival Demand Charts


Server Software By:
Icecast.org
Liquidsoap